This is the latest recevied weather packets stored in our database for station/object SP2MHC-2. If no packets are shown the sender has not sent any weather packets the latest 10 day(s).
| Time | Temp. | Humidity | Pressure | Rain* | Wind** | Luminosity | Snow |
|---|---|---|---|---|---|---|---|
| 1777722890 | 27.22° C | 18% | 1017.2 hPa | - | - | - | - |
| 1777721991 | 27.22° C | 18% | 1017.5 hPa | - | - | - | - |
| 1777721989 | 27.22° C | 18% | 1017.5 hPa | - | - | - | - |
| 1777721090 | 27.78° C | 18% | 1017.6 hPa | - | - | - | - |
| 1777721089 | 27.78° C | 18% | 1017.6 hPa | - | - | - | - |
| 1777720190 | 27.78° C | 18% | 1017.8 hPa | - | - | - | - |
| 1777720189 | 27.78° C | 18% | 1017.8 hPa | - | - | - | - |
| 1777719289 | 27.22° C | 18% | 1017.9 hPa | - | - | - | - |
| 1777719289 | 27.22° C | 18% | 1017.9 hPa | - | - | - | - |
| 1777718393 | 27.78° C | 18% | 1018.1 hPa | - | - | - | - |
| 1777718389 | 27.78° C | 18% | 1018.1 hPa | - | - | - | - |
| 1777717521 | 27.22° C | 19% | 1018.3 hPa | - | - | - | - |
| 1777717489 | 27.22° C | 19% | 1018.3 hPa | - | - | - | - |
| 1777717488 | 27.22° C | 19% | 1018.3 hPa | - | - | - | - |
| 1777716650 | 27.78° C | 18% | 1018.3 hPa | - | - | - | - |
| 1777716589 | 27.78° C | 18% | 1018.3 hPa | - | - | - | - |
| 1777716588 | 27.78° C | 18% | 1018.3 hPa | - | - | - | - |
| 1777715689 | 27.78° C | 19% | 1018.6 hPa | - | - | - | - |
| 1777715688 | 27.78° C | 19% | 1018.6 hPa | - | - | - | - |
| 1777714789 | 28.89° C | 19% | 1018.8 hPa | - | - | - | - |
| 1777714788 | 28.89° C | 19% | 1018.8 hPa | - | - | - | - |
| 1777713888 | 27.78° C | 21% | 1019 hPa | - | - | - | - |
| 1777713888 | 27.78° C | 21% | 1019 hPa | - | - | - | - |
| 1777713020 | 28.33° C | 22% | 1019.1 hPa | - | - | - | - |
| 1777712988 | 28.33° C | 22% | 1019.1 hPa | - | - | - | - |
* Rain since midnight (hover to see other rain measurements)
** Current wind speed in m/s (hover to see current wind gust speed)